NOAA NWS Hourly Roundups by Site

Regional Weather Roundup for Omaha, NE

To Select Another Site Choose from List

Select Site:  

000
ASUS43 KOAX 131703
RWRNE

WEATHER ROUNDUP FOR NEBRASKA
NATIONAL WEATHER SERVICE OMAHA NE
1200 PM CDT THU AUG 13 2020

NOTES: SATELLITE DATA IS BEING USED TO AUGMENT CLOUD COVER ABOVE
       12000 FEET.
       "FAIR" INDICATES FEW OR NO CLOUDS BELOW 12,000 FEET WITH NO
       SIGNIFICANT WEATHER AND/OR OBSTRUCTIONS TO VISIBILITY.


NEZ001>004-019>022-054>056-131800-
NEBRASKA PANHANDLE

CITY           SKY/WX    TMP DP  RH WIND       PRES   REMARKS
SCOTTSBLUFF    SUNNY     86  51  29 VRB5      30.05S
ALLIANCE       SUNNY     89  44  20 W13       30.01F
CHADRON        SUNNY     95  39  14 W14       29.95S HX  91
GORDON         FAIR      89  45  21 W14G20    29.97R
KIMBALL        SUNNY     91  30  11 W8        30.12F
SIDNEY         SUNNY     89  40  17 W7        30.07S
$$

NEZ057>060-069>072-079>082-131800-
SOUTHWEST NEBRASKA

CITY           SKY/WX    TMP DP  RH WIND       PRES   REMARKS
NORTH PLATTE   SUNNY     87  70  56 S10       29.99S HX  92
IMPERIAL       SUNNY     85  69  58 SE9       30.02S
LEXINGTON      CLOUDY    80  72  76 S9        30.02F
MCCOOK         PTSUNNY   82  70  66 SE14      30.02F
OGALLALA       SUNNY     86  64  48 CALM      30.00S
$$

NEZ005>010-023>029-035>040-094-131800-
NORTH CENTRAL NEBRASKA

CITY           SKY/WX    TMP DP  RH WIND       PRES   REMARKS
VALENTINE      SUNNY     89  65  44 SW8       29.91S HX  91
AINSWORTH      SUNNY     86  69  56 S13G23    29.94F HX  90
BROKEN BOW     MOSUNNY   82  72  71 S17G24    30.01S
O`NEILL        CLOUDY    81  70  70 S21G28    29.97F
ORD            CLOUDY    79  72  79 S10G21    29.99S
THEDFORD       SUNNY     86  69  56 S15       29.98S
$$

NEZ041-046>049-061>064-073>077-083>087-131800-
SOUTH CENTRAL NEBRASKA

CITY           SKY/WX    TMP DP  RH WIND       PRES   REMARKS
GRAND ISLAND   PTSUNNY   84  71  65 S13G22    30.01S
AURORA         PTSUNNY   85  74  70 SW10      30.00F HX  92
HASTINGS       PTSUNNY   82  70  66 SW10G21   30.02S
HEBRON         PTSUNNY   84  70  61 S7        30.00S
HOLDREGE       CLOUDY    75  72  89 S12       30.03F
KEARNEY        CLOUDY    77  72  84 S13       30.02F
YORK           SUNNY     86  72  62 SW9       30.00S HX  92
$$

NEZ011>018-030>034-042>045-131800-
NORTHEAST NEBRASKA

CITY           SKY/WX    TMP DP  RH WIND       PRES   REMARKS
NORFOLK        SUNNY     85  70  60 S15G25    29.97F
ALBION         PTSUNNY   82  74  77 SW15G21   29.99F
BLAIR          SUNNY     85  71  63 S12       30.02R HX  90
COLUMBUS       PTSUNNY   85  73  67 S12G20    29.99F HX  91
FREMONT        MOSUNNY   85  74  70 S6        30.01S HX  92
TEKAMAH        SUNNY     86  72  62 S13       29.99S HX  92
WAYNE          MOSUNNY   82  73  73 S15       29.98F
$$

NEZ050>053-065>068-078-088>093-131800-
SOUTHEAST NEBRASKA

CITY           SKY/WX    TMP DP  RH WIND       PRES   REMARKS
LINCOLN        SUNNY     85  69  58 SW6       30.01R
OMAHA EPPLEY   MOSUNNY   87  70  56 S12       30.00R HX  92
BEATRICE       SUNNY     84  70  63 E9        29.99F
FALLS CITY     SUNNY     85  75  72 E8        29.99F HX  93
NEBRASKA CITY  MOSUNNY   85  76  76 SE8       30.01S HX  94
PLATTSMOUTH    MOSUNNY   84  74  72 S6        30.02R HX  92
$$

NEZ044-045-051>053-067-131800-
OMAHA AREA

CITY           SKY/WX    TMP DP  RH WIND       PRES   REMARKS
OMAHA EPPLEY   MOSUNNY   87  70  56 S12       30.00R HX  92
BLAIR          SUNNY     85  71  63 S12       30.02R HX  90
FREMONT        MOSUNNY   85  74  70 S6        30.01S HX  92
MILLARD        MOSUNNY   87  72  59 S7        30.01R HX  93
OFFUTT AFB     SUNNY     86  73  65 S12       30.01R HX  93
PLATTSMOUTH    MOSUNNY   84  74  72 S6        30.02R HX  92
WAHOO          FAIR      85  73  65 S9        30.00S HX  92
$$


 

View Past Reports for Omaha, NE.

Products Courtesy of NOAA-NWS
NWS Information Parsing Script by Ken True at Saratoga Weather - Script by SE Lincoln Weather.